This demonstration page uses our WeatherBlox Daily Observations layout. Learn more.

Left ArrowRight Arrow

Hourly Observations for May 9, 2021

Temp ( °F °C ) Dew Point ( °F °C ) Humidity (%) Winds ( mph kmh ) Pressure ( in mb ) Visibility ( mi km ) Precip ( " mm )
12:53 am 00:53 Clear 54 12.2 50 10 87 87 Calm 30.06 1018 10 16 0.00 0.00
1:53 am 01:53 Clear 52 11.1 50 10 93 93 Calm 30.04 1017 10 16 0.00 0.00
2:53 am 02:53 Clear 52 11.1 49 9.4 89 89 Calm 30.03 1017 10 16 0.00 0.00
3:53 am 03:53 Clear 51 10.6 49 9.4 92 92 Calm 30.03 1017 10 16 0.00 0.00
4:53 am 04:53 Clear 50 10 48 8.9 93 93 Calm 30.02 1017 10 16 0.00 0.00
5:53 am 05:53 Clear 50 10 47 8.3 89 89 Calm 30.02 1017 10 16 0.00 0.00
6:53 am 06:53 Sunny 49 9.4 47 8.3 93 93 Calm 30.04 1017 8 13 0.00 0.00
7:53 am 07:53 Sunny 53 11.7 51 10.6 93 93 Calm 30.06 1018 10 16 0.00 0.00
8:53 am 08:53 Sunny 60 15.6 52 11.1 75 75 Calm 30.06 1018 10 16 0.00 0.00
9:53 am 09:53 Sunny 66 18.9 52 11.1 61 61 VRB 5 7 30.05 1018 10 16 0.00 0.00
10:53 am 10:53 Sunny 73 22.8 51 10.6 46 46 SSW 12 19 30.03 1017 10 16 0.00 0.00
11:53 am 11:53 Sunny 75 23.9 45 7.2 34 34 S 12 19 30.03 1017 10 16 0.00 0.00
12:53 pm 12:53 Sunny 78 25.6 50 10 37 37 S 14 22 30.01 1016 10 16 0.00 0.00
1:53 pm 13:53 Sunny 80 26.7 51 10.6 37 37 SW 14 22 30.00 1016 10 16 0.00 0.00
2:53 pm 14:53 Sunny 81 27.2 52 11.1 37 37 S 14 22 29.98 1015 10 16 0.00 0.00
3:53 pm 15:53 Sunny 82 27.8 53 11.7 37 37 S 12 19 29.95 1014 10 16 0.00 0.00
6:53 pm 18:53 Sunny 82 27.8 52 11.1 35 35 SW 10 17 29.89 1012 10 16 0.00 0.00
7:53 pm 19:53 Sunny 80 26.7 53 11.7 39 39 SW 5 7 29.92 1013 10 16 0.00 0.00
8:53 pm 20:53 Partly Cloudy 78 25.6 54 12.2 43 43 S 3 6 29.93 1014 10 16 0.00 0.00
9:53 pm 21:53 Clear 76 24.4 54 12.2 47 47 SSW 6 9 29.92 1013 10 16 0.00 0.00
10:53 pm 22:53 Mostly Cloudy 70 21.1 63 17.2 79 79 Calm 29.94 1014 10 16 0.00 0.00
11:53 pm 23:53 Cloudy with Light Rain 67 19.4 63 17.2 87 87 SSW 3 6 29.93 1014 10 16 0.04 1.02

Powered by AerisWeather